Radiosonde details



Informationen :

Serial : X3123486
Type : RS41-SGE
Frequency : 403.000MHz
Launchsite : Keflavikurflugvollur
Nearest town : Seltjarnarnes, IS (4km)

Altitude (Max) : 27802m at 2026-08-30 12:37:53
Speed (Max) : 48km/h at altitude 5276m

Average speed : 23km/h
Average ascent rate : 4m/s
Average descent rate : -24m/s
Ascent rate (Max) : 7.2m/s
Descent rate (Max): -49.8m/s

First frame :
DL9RDZ-2 at 2026-08-30 11:03:26 at altitude 762m (OG: 720m)
Last frame :
DL9RDZ-1 at 2026-08-30 12:56:44 at altitude 269m (OG: 227m)

Flighttime : 1h53m18s
Ascent time : 1h34m27s
Descent time : 18m51s
Uptime : -
Killtimer : 8h11m

Distance (Straight line distance): 36km

Distance (Route):


Frames : 414


Measurement :

Temperature : 8.1°C
Humidity : 73.0%
Pressure : 0hPa


Vertical profile (SkewT) :


Elevation profile :



Receiving stations :


Receiver Frames First received Last received
DL9RDZ-1 414 2026-08-30 11:03:26 2026-08-30 12:56:44

Share per receiver :



All frames :


Receiver Date Latitude Longitude Direction Speed Altitude Climb Temperature Humidity Pressure Voltage Killtimer Uptime BKT XDATA
DL9RDZ-12026-08-30 12:56:4464.18199-22.0431720°16km/h269m-14.9m/s8.1°C73.0%0hPa0V08:11:0000:00:0000:00:00
DL9RDZ-12026-08-30 12:56:3464.18159-22.0434918°18km/h406m-14.1m/s6.8°C77.8%0hPa0V08:11:0000:00:0000:00:00
DL9RDZ-12026-08-30 12:56:2364.18121-22.0437512°15km/h549m-14.6m/s5.4°C85.3%0hPa0V08:12:0000:00:0000:00:00
DL9RDZ-12026-08-30 12:56:1264.18085-22.0439113km/h691m-14.5m/s4.0°C91.1%0hPa0V08:12:0000:00:0000:00:00
DL9RDZ-12026-08-30 12:56:0164.18052-22.04397360°11km/h834m-14.4m/s2.7°C95.7%0hPa0V08:12:0000:00:0000:00:00
DL9RDZ-12026-08-30 12:55:5064.18024-22.04384348°11km/h979m-14.1m/s1.7°C0%0hPa0V08:12:0000:00:0000:00:00
DL9RDZ-12026-08-30 12:55:3964.17998-22.04364344°13km/h1123m-14.1m/s0.8°C0%0hPa0V08:12:0000:00:0000:00:00
DL9RDZ-12026-08-30 12:55:2964.17965-22.04351360°13km/h1257m-14.7m/s0.4°C88.0%0hPa0V08:13:0000:00:0000:00:00
DL9RDZ-12026-08-30 12:55:1964.17935-22.04342346°13km/h1393m-14.6m/s-0.9°C95.0%0hPa0V08:13:0000:00:0000:00:00
DL9RDZ-12026-08-30 12:55:0864.17908-22.04313321°9km/h1543m-15.2m/s-2.0°C96.6%0hPa0V08:13:0000:00:0000:00:00
DL9RDZ-12026-08-30 12:54:5864.17894-22.04287319°5km/h1686m-15.2m/s-2.9°C93.6%0hPa0V08:13:0000:00:0000:00:00
DL9RDZ-12026-08-30 12:54:4764.17882-22.04264314°5km/h1837m-15.3m/s-3.8°C84.1%0hPa0V08:13:0000:00:0000:00:00
DL9RDZ-12026-08-30 12:54:3664.17865-22.04254350°7km/h1990m-15.7m/s-4.3°C76.2%0hPa0V08:14:0000:00:0000:00:00
DL9RDZ-12026-08-30 12:54:2564.17840-22.04240340°11km/h2148m-15.0m/s-5.5°C83.8%0hPa0V08:14:0000:00:0000:00:00
DL9RDZ-12026-08-30 12:54:1464.17812-22.04223355°11km/h2306m-15.2m/s-7.0°C90.7%0hPa0V08:14:0000:00:0000:00:00
DL9RDZ-12026-08-30 12:54:0464.17789-22.04215353°7km/h2443m-14.7m/s-7.7°C91.7%0hPa0V08:14:0000:00:0000:00:00
DL9RDZ-12026-08-30 12:53:5364.17775-22.042157km/h2594m-15.1m/s-8.4°C97.1%0hPa0V08:15:0000:00:0000:00:00
DL9RDZ-12026-08-30 12:53:4364.17750-22.0423921°11km/h2735m-15.2m/s-9.3°C0%0hPa0V08:15:0000:00:0000:00:00
DL9RDZ-12026-08-30 12:53:3264.17730-22.042475km/h2893m-15.3m/s-10.4°C0%0hPa0V08:15:0000:00:0000:00:00
DL9RDZ-12026-08-30 12:53:2164.17721-22.0425544°4km/h3052m-15.9m/s-11.7°C0%0hPa0V08:15:0000:00:0000:00:00
DL9RDZ-12026-08-30 12:53:1064.17713-22.0429075°11km/h3211m-15.2m/s-12.3°C84.0%0hPa0V08:15:0000:00:0000:00:00
DL9RDZ-12026-08-30 12:53:0064.17706-22.0439485°22km/h3367m-15.2m/s-13.2°C83.8%0hPa0V08:16:0000:00:0000:00:00
DL9RDZ-12026-08-30 12:52:4864.17706-22.0456591°27km/h3528m-16.0m/s-14.1°C71.8%0hPa0V08:16:0000:00:0000:00:00
DL9RDZ-12026-08-30 12:52:3764.17705-22.0474488°27km/h3689m-15.4m/s-15.6°C78.4%0hPa0V08:16:0000:00:0000:00:00
DL9RDZ-12026-08-30 12:52:2864.17699-22.0489482°18km/h3846m-15.7m/s-16.5°C76.3%0hPa0V08:16:0000:00:0000:00:00
DL9RDZ-12026-08-30 12:52:1664.17687-22.0497646°13km/h4001m-15.6m/s-17.2°C71.2%0hPa0V08:16:0000:00:0000:00:00
DL9RDZ-12026-08-30 12:52:0464.17657-22.0502738°13km/h4162m-15.6m/s-18.5°C71.3%0hPa0V08:17:0000:00:0000:00:00
DL9RDZ-12026-08-30 12:51:5464.17640-22.0507348°13km/h4309m-16.1m/s-19.7°C79.5%0hPa0V08:17:0000:00:0000:00:00
DL9RDZ-12026-08-30 12:51:4364.17611-22.0512833°15km/h4479m-16.4m/s-21.2°C80.9%0hPa0V08:17:0000:00:0000:00:00
DL9RDZ-12026-08-30 12:51:3264.17576-22.0518635°18km/h4652m-16.8m/s-22.6°C76.8%0hPa0V08:17:0000:00:0000:00:00
DL9RDZ-12026-08-30 12:51:2364.17537-22.0525135°22km/h4813m-16.9m/s-24.1°C83.7%0hPa0V08:17:0000:00:0000:00:00
DL9RDZ-12026-08-30 12:51:1164.17486-22.0533634°26km/h4987m-16.5m/s-25.6°C93.6%0hPa0V08:17:0000:00:0000:00:00
DL9RDZ-12026-08-30 12:51:0064.17426-22.0543835°33km/h5157m-16.6m/s-27.1°C0%0hPa0V08:17:0000:00:0000:00:00
DL9RDZ-12026-08-30 12:50:4964.17337-22.0555426°40km/h5332m-17.3m/s-28.5°C0%0hPa0V08:17:0000:00:0000:00:00
DL9RDZ-12026-08-30 12:50:3864.17231-22.0565019°40km/h5500m-15.8m/s-29.2°C91.7%0hPa0V08:17:0000:00:0000:00:00
DL9RDZ-12026-08-30 12:50:1764.17118-22.0580045°16km/h5828m-17.1m/s-30.4°C49.3%0hPa0V08:18:0000:00:0000:00:00
DL9RDZ-12026-08-30 12:50:0664.17085-22.0587538°16km/h6012m-17.6m/s-31.7°C38.0%0hPa0V08:18:0000:00:0000:00:00
DL9RDZ-12026-08-30 12:49:5664.17052-22.0593737°18km/h6187m-17.5m/s-32.7°C35.4%0hPa0V08:18:0000:00:0000:00:00
DL9RDZ-12026-08-30 12:49:4564.17009-22.0601035°18km/h6366m-17.7m/s-34.0°C47.0%0hPa0V08:18:0000:00:0000:00:00
DL9RDZ-12026-08-30 12:49:3464.16958-22.0606045°20km/h6492m-18.9m/s-35.4°C46.8%0hPa0V08:19:0000:00:0000:00:00
DL9RDZ-12026-08-30 12:49:2464.16911-22.0614943°24km/h6671m-19.8m/s-36.6°C45.4%0hPa0V08:19:0000:00:0000:00:00
DL9RDZ-12026-08-30 12:49:1264.16856-22.0624749°27km/h6856m-20.1m/s-37.9°C46.2%0hPa0V08:19:0000:00:0000:00:00
DL9RDZ-12026-08-30 12:49:0264.16802-22.0636848°33km/h7020m-20.7m/s-38.5°C27.0%0hPa0V08:19:0000:00:0000:00:00
DL9RDZ-12026-08-30 12:48:5264.16740-22.0650345°29km/h7212m-20.0m/s-39.8°C39.2%0hPa0V08:19:0000:00:0000:00:00
DL9RDZ-12026-08-30 12:48:4064.16679-22.0663448°31km/h7404m-21.3m/s-41.0°C41.0%0hPa0V08:20:0000:00:0000:00:00
DL9RDZ-12026-08-30 12:48:2964.16612-22.0677241°35km/h7599m-21.2m/s-42.5°C51.4%0hPa0V08:20:0000:00:0000:00:00
DL9RDZ-12026-08-30 12:48:1864.16535-22.0690541°37km/h7791m-20.7m/s-44.0°C59.1%0hPa0V08:20:0000:00:0000:00:00
DL9RDZ-12026-08-30 12:48:0764.16453-22.0705642°37km/h7977m-20.3m/s-45.7°C53.6%0hPa0V08:20:0000:00:0000:00:00
DL9RDZ-12026-08-30 12:47:5764.16377-22.0716629°35km/h8159m-21.1m/s-46.6°C41.0%0hPa0V08:21:0000:00:0000:00:00
DL9RDZ-12026-08-30 12:47:4764.16296-22.0725427°33km/h8373m-22.1m/s-47.9°C35.5%0hPa0V08:21:0000:00:0000:00:00
DL9RDZ-12026-08-30 12:47:3564.16209-22.0733324°35km/h8594m-22.9m/s-49.4°C34.9%0hPa0V08:21:0000:00:0000:00:00
DL9RDZ-12026-08-30 12:47:2564.16121-22.0741931°33km/h8815m-22.7m/s-50.7°C31.9%0hPa0V08:21:0000:00:0000:00:00
DL9RDZ-12026-08-30 12:47:1564.16048-22.0750327°33km/h9016m-23.5m/s-51.4°C26.6%0hPa0V08:21:0000:00:0000:00:00
DL9RDZ-12026-08-30 12:47:0364.15964-22.0758126°33km/h9241m-23.1m/s-51.6°C20.1%0hPa0V08:22:0000:00:0000:00:00
DL9RDZ-12026-08-30 12:46:5064.15868-22.0767830°29km/h9505m-23.7m/s-50.8°C12.7%0hPa0V08:22:0000:00:0000:00:00
DL9RDZ-12026-08-30 12:46:3964.15803-22.0778041°27km/h9724m-23.1m/s-49.6°C6.7%0hPa0V08:22:0000:00:0000:00:00
DL9RDZ-12026-08-30 12:46:2864.15745-22.0793054°33km/h9951m-23.8m/s-47.4°C3.2%0hPa0V08:22:0000:00:0000:00:00
DL9RDZ-12026-08-30 12:46:1864.15701-22.0806449°27km/h10165m-24.4m/s-46.1°C2.3%0hPa0V08:22:0000:00:0000:00:00
DL9RDZ-12026-08-30 12:46:0764.15651-22.0815240°26km/h10408m-24.7m/s-44.9°C1.7%0hPa0V08:22:0000:00:0000:00:00
DL9RDZ-12026-08-30 12:45:5664.15599-22.0830155°31km/h10677m-23.3m/s-43.9°C1.5%0hPa0V08:22:0000:00:0000:00:00
DL9RDZ-12026-08-30 12:45:4664.15564-22.0844564°27km/h10899m-22.1m/s-43.7°C1.2%0hPa0V08:22:0000:00:0000:00:00
DL9RDZ-12026-08-30 12:45:3564.15528-22.0860464°35km/h11152m-23.6m/s-43.2°C1.0%0hPa0V08:22:0000:00:0000:00:00
DL9RDZ-12026-08-30 12:45:2464.15485-22.0881670°37km/h11405m-23.6m/s-43.0°C1.0%0hPa0V00:00:0000:00:0000:00:00
DL9RDZ-12026-08-30 12:45:1464.15456-22.0897364°26km/h11645m-25.2m/s-42.9°C1.0%0hPa0V00:00:0000:00:0000:00:00
DL9RDZ-12026-08-30 12:45:0364.15436-22.0911779°27km/h11910m-24.2m/s-42.5°C0.9%0hPa0V00:00:0000:00:0000:00:00
DL9RDZ-12026-08-30 12:44:5364.15429-22.0923964°16km/h12160m-24.4m/s-42.9°C1.0%0hPa0V00:00:0000:00:0000:00:00
DL9RDZ-12026-08-30 12:44:4364.15397-22.0937574°27km/h12418m-25.4m/s-43.1°C1.0%0hPa0V00:00:0000:00:0000:00:00
DL9RDZ-12026-08-30 12:44:2564.15379-22.0958077°22km/h12883m-24.9m/s-43.7°C1.0%0hPa0V08:24:0000:00:0000:00:00
DL9RDZ-12026-08-30 12:44:1564.15375-22.0973180°22km/h12914m-28.7m/s-43.4°C0.9%0hPa0V08:24:0000:00:0000:00:00
DL9RDZ-12026-08-30 12:44:0464.15375-22.0984989°20km/h13203m-28.6m/s-43.3°C0.8%0hPa0V08:24:0000:00:0000:00:00
DL9RDZ-12026-08-30 12:43:5364.15352-22.0999068°26km/h13546m-29.3m/s-43.5°C0.8%0hPa0V08:24:0000:00:0000:00:00
DL9RDZ-12026-08-30 12:43:3664.15334-22.1014275°11km/h14073m-27.4m/s-44.0°C0.8%0hPa0V08:25:0000:00:0000:00:00
DL9RDZ-12026-08-30 12:43:2664.15322-22.1023086°20km/h14363m-28.9m/s-44.1°C0.8%0hPa0V08:25:0000:00:0000:00:00
DL9RDZ-12026-08-30 12:43:1564.15317-22.1035173°13km/h14687m-28.2m/s-44.3°C0.8%0hPa0V08:25:0000:00:0000:00:00
DL9RDZ-12026-08-30 12:43:0564.15302-22.1041564°18km/h14981m-30.6m/s-45.4°C0.9%0hPa0V08:25:0000:00:0000:00:00
DL9RDZ-12026-08-30 12:42:5464.15280-22.1055284°29km/h15334m-30.5m/s-43.8°C0.7%0hPa0V08:25:0000:00:0000:00:00
DL9RDZ-12026-08-30 12:42:4464.15277-22.10692105°16km/h15660m-30.3m/s-44.3°C0.7%0hPa0V08:26:0000:00:0000:00:00
DL9RDZ-12026-08-30 12:42:3364.15266-22.1075734°16km/h16021m-30.7m/s-45.5°C0.8%0hPa0V08:26:0000:00:0000:00:00
DL9RDZ-12026-08-30 12:42:2364.15232-22.1083679°18km/h16348m-32.6m/s-44.9°C0.7%0hPa0V08:26:0000:00:0000:00:00
DL9RDZ-12026-08-30 12:42:1264.15220-22.1090548°11km/h16655m-33.3m/s-45.3°C0.8%0hPa0V08:26:0000:00:0000:00:00
DL9RDZ-12026-08-30 12:42:0264.15218-22.1102367°20km/h16888m-34.1m/s-46.4°C0.8%0hPa0V08:26:0000:00:0000:00:00
DL9RDZ-12026-08-30 12:41:5164.15213-22.1110949°7km/h17268m-32.9m/s-45.8°C0.8%0hPa0V08:27:0000:00:0000:00:00
DL9RDZ-12026-08-30 12:41:4164.15202-22.1114438°20km/h17651m-35.5m/s-45.8°C0.8%0hPa0V08:27:0000:00:0000:00:00
DL9RDZ-12026-08-30 12:41:3164.15151-22.1124554°27km/h18028m-35.2m/s-46.7°C0.8%0hPa0V08:27:0000:00:0000:00:00
DL9RDZ-12026-08-30 12:41:2064.15105-22.1138458°24km/h18482m-37.2m/s-46.0°C0.7%0hPa0V08:27:0000:00:0000:00:00
DL9RDZ-12026-08-30 12:41:0964.15056-22.1149255°22km/h18888m-37.9m/s-46.4°C0.7%0hPa0V08:28:0000:00:0000:00:00
DL9RDZ-12026-08-30 12:40:5964.15025-22.1159074°18km/h19294m-37.2m/s-46.6°C0.7%0hPa0V08:28:0000:00:0000:00:00
DL9RDZ-12026-08-30 12:40:5064.15005-22.1169256°13km/h19707m-39.4m/s-47.1°C0.7%0hPa0V08:28:0000:00:0000:00:00
DL9RDZ-12026-08-30 12:40:3864.14934-22.1175646°27km/h20185m-39.8m/s-47.5°C0.8%0hPa0V08:28:0000:00:0000:00:00
DL9RDZ-12026-08-30 12:40:2864.14911-22.1185857°24km/h20509m-36.7m/s-47.2°C0.8%0hPa0V08:28:0000:00:0000:00:00
DL9RDZ-12026-08-30 12:40:1864.14885-22.1198571°26km/h20897m-40.3m/s-46.5°C0.7%0hPa0V08:28:0000:00:0000:00:00
DL9RDZ-12026-08-30 12:40:0464.14848-22.1213341°22km/h21521m-42.7m/s-46.9°C0.7%0hPa0V08:28:0000:00:0000:00:00
DL9RDZ-12026-08-30 12:39:3864.14773-22.1243992°26km/h22530m-46.2m/s-48.2°C0.7%0hPa0V08:28:0000:00:0000:00:00
DL9RDZ-12026-08-30 12:39:2864.14767-22.1254247°16km/h23027m-44.6m/s-49.2°C0.9%0hPa0V00:00:0000:00:0000:00:00
DL9RDZ-12026-08-30 12:39:1764.14730-22.1265579°20km/h23521m-49.8m/s-46.5°C0.7%0hPa0V00:00:0000:00:0000:00:00
DL9RDZ-12026-08-30 12:39:0564.14712-22.1278779°24km/h24103m-46.6m/s-46.0°C0.6%0hPa0V00:00:0000:00:0000:00:00
DL9RDZ-12026-08-30 12:37:5364.14632-22.1305765°13km/h27802m7.2m/s-47.3°C0.7%0hPa0V00:00:0000:00:0000:00:00
DL9RDZ-12026-08-30 12:35:3364.14210-22.13239340°11km/h26999m4.7m/s-47.5°C0.7%0hPa0V00:00:0000:00:0000:00:00
DL9RDZ-12026-08-30 12:32:5964.14169-22.1317013km/h26125m6.5m/s-46.6°C0.7%0hPa0V00:00:0000:00:0000:00:00
DL9RDZ-12026-08-30 12:32:4864.14130-22.13177337°13km/h26067m5.8m/s-47.1°C0.7%0hPa0V00:00:0000:00:0000:00:00
DL9RDZ-12026-08-30 12:32:3864.14095-22.1319339°13km/h26010m5.1m/s-47.3°C0.7%0hPa0V00:00:0000:00:0000:00:00
DL9RDZ-12026-08-30 12:32:2864.14078-22.1319014°15km/h25947m6.2m/s-47.5°C0.7%0hPa0V00:00:0000:00:0000:00:00
DL9RDZ-12026-08-30 12:30:3464.14186-22.13681113°22km/h25272m6.2m/s-47.3°C0.7%0hPa0V00:00:0000:00:0000:00:00
DL9RDZ-12026-08-30 12:30:2364.14169-22.13859107°18km/h25198m7.1m/s-47.5°C0.7%0hPa0V00:00:0000:00:0000:00:00
DL9RDZ-12026-08-30 12:30:1064.14158-22.1402790°18km/h25130m6.4m/s-47.4°C0.7%0hPa0V00:00:0000:00:0000:00:00
DL9RDZ-12026-08-30 12:29:4564.14105-22.1426656°24km/h24982m6.1m/s-47.0°C0.7%0hPa0V00:00:0000:00:0000:00:00
DL9RDZ-12026-08-30 12:29:3064.14059-22.1435642°13km/h24895m6.4m/s-46.8°C0.7%0hPa0V00:00:0000:00:0000:00:00
DL9RDZ-12026-08-30 12:29:1964.14034-22.1438416°11km/h24825m5.6m/s-46.6°C0.7%0hPa0V00:00:0000:00:0000:00:00
DL9RDZ-12026-08-30 12:29:0764.14031-22.1440965°2km/h24763m5.3m/s-46.5°C0.7%0hPa0V00:00:0000:00:0000:00:00
DL9RDZ-12026-08-30 12:28:5164.14019-22.1446766°7km/h24673m6.6m/s-46.1°C0.7%0hPa0V00:00:0000:00:0000:00:00
DL9RDZ-12026-08-30 12:25:3264.13852-22.1682782°29km/h23593m4.8m/s-47.5°C0.7%0hPa0V00:00:0000:00:0000:00:00
DL9RDZ-12026-08-30 12:25:1964.13830-22.1701974°29km/h23522m6.6m/s-47.8°C0.8%0hPa0V00:00:0000:00:0000:00:00
DL9RDZ-12026-08-30 12:24:5864.13737-22.1734043°37km/h23405m5.2m/s-48.1°C0.8%0hPa0V00:00:0000:00:0000:00:00
DL9RDZ-12026-08-30 12:21:2064.13307-22.1986460°24km/h22188m6.5m/s-46.4°C0.8%0hPa0V00:00:0000:00:0000:00:00
DL9RDZ-12026-08-30 12:21:0264.13233-22.2006030°29km/h22093m5.7m/s-45.8°C0.7%0hPa0V00:00:0000:00:0000:00:00
DL9RDZ-12026-08-30 12:20:3864.13097-22.2033844°29km/h21960m5.1m/s-46.0°C0.7%0hPa0V00:00:0000:00:0000:00:00
DL9RDZ-12026-08-30 12:19:3364.12788-22.2093932°29km/h21602m5.9m/s-47.1°C0.8%0hPa0V00:00:0000:00:0000:00:00
DL9RDZ-12026-08-30 12:19:2064.12727-22.2108727°24km/h21532m5.3m/s-47.2°C0.8%0hPa0V00:00:0000:00:0000:00:00
DL9RDZ-12026-08-30 12:15:2864.11967-22.2339540°15km/h20324m3.6m/s-48.3°C0.9%0hPa0V00:00:0000:00:0000:00:00
DL9RDZ-12026-08-30 12:15:1764.11916-22.2350524°20km/h20262m6.0m/s-48.1°C0.9%0hPa0V00:00:0000:00:0000:00:00
DL9RDZ-12026-08-30 12:15:0564.11851-22.2357933°24km/h20199m6.1m/s-48.0°C0.9%0hPa0V00:00:0000:00:0000:00:00
DL9RDZ-12026-08-30 12:14:3064.11701-22.2385044°16km/h20026m4.5m/s-48.1°C0.9%0hPa0V00:00:0000:00:0000:00:00
DL9RDZ-12026-08-30 12:11:3064.11423-22.2540854°22km/h19087m5.3m/s-46.4°C0.9%0hPa0V00:00:0000:00:0000:00:00
DL9RDZ-12026-08-30 12:10:0064.11128-22.2637362°24km/h18632m5.0m/s-46.3°C0.9%0hPa0V00:00:0000:00:0000:00:00
DL9RDZ-12026-08-30 12:05:4564.10353-22.28098305°7km/h17377m4.1m/s-45.0°C0.8%0hPa0V00:00:0000:00:0000:00:00
DL9RDZ-12026-08-30 12:05:2964.10364-22.28112114°5km/h17297m5.5m/s-45.2°C0.8%0hPa0V00:00:0000:00:0000:00:00
DL9RDZ-12026-08-30 12:05:1064.10399-22.28268100°20km/h17203m5.5m/s-45.3°C0.9%0hPa0V00:00:0000:00:0000:00:00
DL9RDZ-12026-08-30 12:04:5864.10410-22.2844099°24km/h17148m4.9m/s-45.2°C0.8%0hPa0V00:00:0000:00:0000:00:00
DL9RDZ-12026-08-30 12:04:4764.10407-22.2858970°24km/h17094m4.4m/s-45.7°C0.9%0hPa0V00:00:0000:00:0000:00:00
DL9RDZ-12026-08-30 12:04:3764.10392-22.2873563°22km/h17044m5.1m/s-46.0°C0.9%0hPa0V00:00:0000:00:0000:00:00
DL9RDZ-12026-08-30 12:04:2464.10355-22.2887556°20km/h16991m4.8m/s-45.9°C0.9%0hPa0V00:00:0000:00:0000:00:00
DL9RDZ-12026-08-30 12:04:1364.10322-22.2897958°22km/h16937m3.8m/s-45.9°C0.9%0hPa0V00:00:0000:00:0000:00:00
DL9RDZ-12026-08-30 12:04:0164.10277-22.2909064°15km/h16883m5.1m/s-45.6°C0.9%0hPa0V00:00:0000:00:0000:00:00
DL9RDZ-12026-08-30 12:03:5064.10251-22.2916455°18km/h16832m5.7m/s-45.4°C0.9%0hPa0V00:00:0000:00:0000:00:00
DL9RDZ-12026-08-30 12:03:3964.10229-22.2924570°13km/h16780m4.4m/s-45.3°C0.9%0hPa0V00:00:0000:00:0000:00:00
DL9RDZ-12026-08-30 12:03:2964.10217-22.2933467°16km/h16732m5.4m/s-45.3°C0.9%0hPa0V00:00:0000:00:0000:00:00
DL9RDZ-12026-08-30 12:03:1864.10202-22.2939870°13km/h16680m3.7m/s-45.2°C0.9%0hPa0V00:00:0000:00:0000:00:00
DL9RDZ-12026-08-30 12:03:0864.10206-22.29476101°13km/h16634m5.2m/s-45.3°C0.9%0hPa0V00:00:0000:00:0000:00:00
DL9RDZ-12026-08-30 12:02:5764.10208-22.2954569°13km/h16581m4.1m/s-45.2°C0.9%0hPa0V00:00:0000:00:0000:00:00
DL9RDZ-12026-08-30 12:02:4664.10205-22.2966271°20km/h16527m5.8m/s-45.1°C0.9%0hPa0V00:00:0000:00:0000:00:00
DL9RDZ-12026-08-30 12:02:3664.10202-22.29812106°20km/h16479m4.6m/s-45.1°C0.9%0hPa0V00:00:0000:00:0000:00:00
DL9RDZ-12026-08-30 12:02:2564.10197-22.2994493°31km/h16429m5.2m/s-45.2°C0.9%0hPa0V00:00:0000:00:0000:00:00
DL9RDZ-12026-08-30 12:01:3964.10131-22.3048632°22km/h16220m4.6m/s-45.9°C0.9%0hPa0V00:00:0000:00:0000:00:00
DL9RDZ-12026-08-30 12:01:2764.10092-22.3053331°16km/h16168m4.6m/s-46.0°C0.9%0hPa0V00:00:0000:00:0000:00:00
DL9RDZ-12026-08-30 12:01:1664.10061-22.3056428°9km/h16116m5.4m/s-45.9°C1.0%0hPa0V00:00:0000:00:0000:00:00
DL9RDZ-12026-08-30 12:01:0664.10049-22.3056846°7km/h16070m4.7m/s-45.8°C0.9%0hPa0V00:00:0000:00:0000:00:00
DL9RDZ-12026-08-30 12:00:5664.10045-22.30584101°7km/h16023m3.4m/s-45.6°C1.0%0hPa0V00:00:0000:00:0000:00:00
DL9RDZ-12026-08-30 12:00:4664.10041-22.30618136°5km/h15973m4.2m/s-45.5°C0.9%0hPa0V00:00:0000:00:0000:00:00
DL9RDZ-12026-08-30 12:00:3564.10049-22.30655105°16km/h15922m5.0m/s-45.7°C0.9%0hPa0V00:00:0000:00:0000:00:00
DL9RDZ-12026-08-30 12:00:2664.10062-22.30732107°18km/h15877m5.2m/s-45.5°C0.9%0hPa0V00:00:0000:00:0000:00:00
DL9RDZ-12026-08-30 12:00:1564.10077-22.30843102°15km/h15822m5.0m/s-45.3°C0.9%0hPa0V00:00:0000:00:0000:00:00
DL9RDZ-12026-08-30 12:00:0464.10085-22.3097394°24km/h15775m3.8m/s-45.3°C1.0%0hPa0V00:00:0000:00:0000:00:00
DL9RDZ-12026-08-30 11:59:5364.10099-22.31121101°27km/h15724m4.6m/s-45.1°C0.9%0hPa0V00:00:0000:00:0000:00:00
DL9RDZ-12026-08-30 11:59:0364.10052-22.3188568°29km/h15495m4.0m/s-44.9°C0.9%0hPa0V00:00:0000:00:0000:00:00
DL9RDZ-12026-08-30 11:58:5364.10019-22.3202160°20km/h15451m3.7m/s-44.9°C0.9%0hPa0V00:00:0000:00:0000:00:00
DL9RDZ-12026-08-30 11:58:4364.09985-22.3213757°22km/h15408m4.0m/s-45.3°C0.9%0hPa0V00:00:0000:00:0000:00:00
DL9RDZ-12026-08-30 11:58:2564.09930-22.3226123°16km/h15328m4.0m/s-45.2°C1.0%0hPa0V00:00:0000:00:0000:00:00
DL9RDZ-12026-08-30 11:58:1464.09899-22.3231529°9km/h15276m4.3m/s-45.1°C1.0%0hPa0V00:00:0000:00:0000:00:00
DL9RDZ-12026-08-30 11:58:0464.09877-22.3236241°11km/h15231m4.0m/s-45.1°C1.0%0hPa0V00:00:0000:00:0000:00:00
DL9RDZ-12026-08-30 11:57:5364.09862-22.3241158°11km/h15182m4.2m/s-45.1°C1.0%0hPa0V00:00:0000:00:0000:00:00
DL9RDZ-12026-08-30 11:57:4364.09849-22.3245873°9km/h15136m5.0m/s-45.3°C1.0%0hPa0V00:00:0000:00:0000:00:00
DL9RDZ-12026-08-30 11:57:3364.09836-22.3251151°15km/h15092m4.6m/s-45.3°C1.0%0hPa0V00:00:0000:00:0000:00:00
DL9RDZ-12026-08-30 11:57:2264.09828-22.3259276°13km/h15044m4.2m/s-45.4°C1.0%0hPa0V00:00:0000:00:0000:00:00
DL9RDZ-12026-08-30 11:57:1264.09811-22.3265964°11km/h14999m4.6m/s-45.4°C1.0%0hPa0V00:00:0000:00:0000:00:00
DL9RDZ-12026-08-30 11:56:3764.09779-22.32806116°9km/h14838m3.9m/s-44.6°C1.0%0hPa0V00:00:0000:00:0000:00:00
DL9RDZ-12026-08-30 11:56:2664.09779-22.32886116°13km/h14788m4.7m/s-44.3°C1.0%0hPa0V00:00:0000:00:0000:00:00
DL9RDZ-12026-08-30 11:56:1664.09783-22.3297585°18km/h14744m5.2m/s-44.3°C1.0%0hPa0V00:00:0000:00:0000:00:00
DL9RDZ-12026-08-30 11:56:0564.09790-22.3309788°27km/h14694m4.9m/s-44.2°C1.0%0hPa0V00:00:0000:00:0000:00:00
DL9RDZ-12026-08-30 11:55:5464.09792-22.3325389°20km/h14645m3.9m/s-44.2°C1.0%0hPa0V00:00:0000:00:0000:00:00
DL9RDZ-12026-08-30 11:55:4464.09792-22.3340387°29km/h14596m4.4m/s-44.4°C1.0%0hPa0V00:00:0000:00:0000:00:00
DL9RDZ-12026-08-30 11:55:3364.09779-22.3355681°27km/h14554m3.4m/s-44.3°C1.0%0hPa0V00:00:0000:00:0000:00:00
DL9RDZ-12026-08-30 11:55:2364.09771-22.3372174°22km/h14510m3.8m/s-44.3°C1.0%0hPa0V00:00:0000:00:0000:00:00
DL9RDZ-12026-08-30 11:55:1264.09755-22.3388273°24km/h14460m3.5m/s-44.4°C1.0%0hPa0V00:00:0000:00:0000:00:00
DL9RDZ-12026-08-30 11:55:0264.09743-22.3401184°24km/h14416m3.6m/s-44.2°C1.0%0hPa0V00:00:0000:00:0000:00:00
DL9RDZ-12026-08-30 11:54:5164.09728-22.3410976°16km/h14365m3.6m/s-44.1°C1.0%0hPa0V00:00:0000:00:0000:00:00
DL9RDZ-12026-08-30 11:53:5164.09703-22.34664103°18km/h14093m4.4m/s-43.9°C1.0%0hPa0V00:00:0000:00:0000:00:00
DL9RDZ-12026-08-30 11:53:4164.09711-22.3478488°20km/h14050m4.1m/s-43.8°C1.0%0hPa0V00:00:0000:00:0000:00:00
DL9RDZ-12026-08-30 11:53:1064.09692-22.3515975°27km/h13914m3.8m/s-43.6°C1.0%0hPa0V00:00:0000:00:0000:00:00
DL9RDZ-12026-08-30 11:53:0064.09679-22.3529081°20km/h13870m4.7m/s-43.5°C1.0%0hPa0V00:00:0000:00:0000:00:00
DL9RDZ-12026-08-30 11:52:5064.09656-22.3541859°29km/h13826m4.0m/s-43.6°C1.0%0hPa0V00:00:0000:00:0000:00:00
DL9RDZ-12026-08-30 11:52:4064.09640-22.3551875°20km/h13786m3.8m/s-43.7°C1.0%0hPa0V00:00:0000:00:0000:00:00
DL9RDZ-12026-08-30 11:52:2964.09612-22.3564763°24km/h13740m3.2m/s-43.9°C1.1%0hPa0V00:00:0000:00:0000:00:00
DL9RDZ-12026-08-30 11:52:1864.09579-22.3578463°24km/h13691m3.8m/s-43.8°C1.1%0hPa0V00:00:0000:00:0000:00:00
DL9RDZ-12026-08-30 11:52:0764.09548-22.3592964°27km/h13644m4.7m/s-43.6°C1.1%0hPa0V00:00:0000:00:0000:00:00
DL9RDZ-12026-08-30 11:51:5764.09521-22.3606670°24km/h13601m4.1m/s-43.5°C1.0%0hPa0V00:00:0000:00:0000:00:00
DL9RDZ-12026-08-30 11:51:4664.09501-22.3619695°16km/h13554m4.2m/s-43.7°C1.0%0hPa0V00:00:0000:00:0000:00:00
DL9RDZ-12026-08-30 11:51:3664.09489-22.3630471°18km/h13511m3.1m/s-43.8°C1.1%0hPa0V00:00:0000:00:0000:00:00
DL9RDZ-12026-08-30 11:51:2564.09484-22.3645392°24km/h13466m4.2m/s-43.9°C1.1%0hPa0V00:00:0000:00:0000:00:00
DL9RDZ-12026-08-30 11:51:1464.09486-22.3661094°22km/h13419m3.9m/s-44.2°C1.2%0hPa0V00:00:0000:00:0000:00:00
DL9RDZ-12026-08-30 11:51:0464.09483-22.3673887°29km/h13379m3.8m/s-44.3°C1.2%0hPa0V00:00:0000:00:0000:00:00
DL9RDZ-12026-08-30 11:50:5464.09486-22.3690398°22km/h13331m5.1m/s-44.4°C1.2%0hPa0V00:00:0000:00:0000:00:00
DL9RDZ-12026-08-30 11:50:3964.09475-22.3708085°18km/h13270m4.5m/s-44.1°C1.2%0hPa0V00:00:0000:00:0000:00:00
DL9RDZ-12026-08-30 11:50:2964.09456-22.3721966°24km/h13229m4.2m/s-43.9°C1.2%0hPa0V00:00:0000:00:0000:00:00
DL9RDZ-12026-08-30 11:50:1864.09440-22.3735982°26km/h13179m4.1m/s-43.8°C1.2%0hPa0V00:00:0000:00:0000:00:00
DL9RDZ-12026-08-30 11:50:0864.09427-22.3750278°22km/h13130m3.6m/s-44.0°C1.2%0hPa0V00:00:0000:00:0000:00:00
DL9RDZ-12026-08-30 11:49:5764.09408-22.3760960°26km/h13086m4.8m/s-44.0°C1.2%0hPa0V00:00:0000:00:0000:00:00
DL9RDZ-12026-08-30 11:49:3764.09351-22.3782856°22km/h13003m3.2m/s-43.9°C1.2%0hPa0V00:00:0000:00:0000:00:00
DL9RDZ-12026-08-30 11:49:2864.09326-22.3794368°20km/h12959m4.9m/s-44.1°C1.2%0hPa0V00:00:0000:00:0000:00:00
DL9RDZ-12026-08-30 11:49:1664.09320-22.3807082°22km/h12910m4.3m/s-44.1°C1.3%0hPa0V00:00:0000:00:0000:00:00
DL9RDZ-12026-08-30 11:48:2564.09319-22.3873086°18km/h12696m3.8m/s-43.7°C1.3%0hPa0V00:00:0000:00:0000:00:00
DL9RDZ-12026-08-30 11:48:1564.09314-22.3888285°31km/h12648m3.6m/s-43.5°C1.3%0hPa0V00:00:0000:00:0000:00:00
DL9RDZ-12026-08-30 11:48:0364.09298-22.3905678°27km/h12602m4.0m/s-43.4°C1.3%0hPa0V00:00:0000:00:0000:00:00
DL9RDZ-12026-08-30 11:47:5264.09285-22.3921577°24km/h12558m4.8m/s-43.3°C1.3%0hPa0V00:00:0000:00:0000:00:00
DL9RDZ-12026-08-30 11:47:4164.09262-22.3934668°20km/h12513m4.3m/s-43.6°C1.3%0hPa0V00:00:0000:00:0000:00:00
DL9RDZ-12026-08-30 11:47:3064.09226-22.3949956°31km/h12467m4.3m/s-43.5°C1.3%0hPa0V00:00:0000:00:0000:00:00
DL9RDZ-12026-08-30 11:47:2064.09182-22.3966053°31km/h12427m4.2m/s-43.5°C1.2%0hPa0V00:00:0000:00:0000:00:00
DL9RDZ-12026-08-30 11:46:4964.09071-22.4001872°20km/h12299m3.4m/s-43.7°C1.2%0hPa0V00:00:0000:00:0000:00:00
DL9RDZ-12026-08-30 11:46:3864.09055-22.4015191°20km/h12254m3.9m/s-43.5°C1.2%0hPa0V00:00:0000:00:0000:00:00
DL9RDZ-12026-08-30 11:46:2764.09048-22.4028669°22km/h12207m3.6m/s-43.4°C1.2%0hPa0V00:00:0000:00:0000:00:00
DL9RDZ-12026-08-30 11:46:1764.09038-22.4043179°27km/h12164m3.9m/s-43.5°C1.2%0hPa0V00:00:0000:00:0000:00:00
DL9RDZ-12026-08-30 11:46:0864.09030-22.4058179°29km/h12121m3.8m/s-43.3°C1.2%0hPa0V00:00:0000:00:0000:00:00
DL9RDZ-12026-08-30 11:45:5764.09019-22.4075984°31km/h12080m4.5m/s-43.4°C1.3%0hPa0V00:00:0000:00:0000:00:00
DL9RDZ-12026-08-30 11:45:3764.08982-22.4111176°24km/h11995m3.7m/s-43.2°C1.2%0hPa0V00:00:0000:00:0000:00:00
DL9RDZ-12026-08-30 11:45:2664.08965-22.4125581°22km/h11951m4.5m/s-43.1°C1.2%0hPa0V00:00:0000:00:0000:00:00
DL9RDZ-12026-08-30 11:45:1664.08957-22.4140288°24km/h11905m5.1m/s-43.2°C1.2%0hPa0V00:00:0000:00:0000:00:00
DL9RDZ-12026-08-30 11:45:0464.08942-22.4156073°26km/h11857m5.2m/s-43.5°C1.3%0hPa0V00:00:0000:00:0000:00:00
DL9RDZ-12026-08-30 11:44:5364.08922-22.4172563°31km/h11812m3.8m/s-43.3°C1.3%0hPa0V00:00:0000:00:0000:00:00
DL9RDZ-12026-08-30 11:44:4264.08890-22.4188267°26km/h11766m4.8m/s-43.3°C1.3%0hPa0V00:00:0000:00:0000:00:00
DL9RDZ-12026-08-30 11:44:3364.08859-22.4202758°29km/h11724m4.5m/s-43.1°C1.3%0hPa0V00:00:0000:00:0000:00:00
DL9RDZ-12026-08-30 11:44:2164.08827-22.4219065°29km/h11677m3.9m/s-43.2°C1.3%0hPa0V00:00:0000:00:0000:00:00
DL9RDZ-12026-08-30 11:44:1164.08803-22.4233670°29km/h11636m4.5m/s-43.2°C1.3%0hPa0V00:00:0000:00:0000:00:00
DL9RDZ-12026-08-30 11:44:0064.08775-22.4251574°31km/h11589m4.4m/s-43.2°C1.3%0hPa0V00:00:0000:00:0000:00:00
DL9RDZ-12026-08-30 11:43:5064.08739-22.4271366°40km/h11543m4.6m/s-43.2°C1.3%0hPa0V00:00:0000:00:0000:00:00
DL9RDZ-12026-08-30 11:43:3964.08697-22.4294470°42km/h11496m4.1m/s-43.1°C1.4%0hPa0V00:00:0000:00:0000:00:00
DL9RDZ-12026-08-30 11:43:2964.08669-22.4313573°35km/h11451m3.9m/s-43.0°C1.3%0hPa0V00:00:0000:00:0000:00:00
DL9RDZ-12026-08-30 11:43:1864.08636-22.4336269°33km/h11408m4.4m/s-42.7°C1.3%0hPa0V00:00:0000:00:0000:00:00
DL9RDZ-12026-08-30 11:43:0864.08595-22.4354959°42km/h11364m4.9m/s-43.1°C1.4%0hPa0V00:00:0000:00:0000:00:00
DL9RDZ-12026-08-30 11:42:4764.08492-22.4395870°37km/h11278m4.1m/s-43.3°C1.4%0hPa0V00:00:0000:00:0000:00:00
DL9RDZ-12026-08-30 11:42:3764.08454-22.4416265°38km/h11238m3.5m/s-43.4°C1.4%0hPa0V00:00:0000:00:0000:00:00
DL9RDZ-12026-08-30 11:42:2664.08415-22.4433360°31km/h11190m3.8m/s-43.3°C1.5%0hPa0V00:00:0000:00:0000:00:00
DL9RDZ-12026-08-30 11:42:1464.08372-22.4449849°27km/h11141m3.9m/s-43.2°C1.5%0hPa0V00:00:0000:00:0000:00:00
DL9RDZ-12026-08-30 11:42:0564.08335-22.4462368°24km/h11099m4.3m/s-43.2°C1.5%0hPa0V00:00:0000:00:0000:00:00
DL9RDZ-12026-08-30 11:41:5464.08305-22.4473052°18km/h11053m4.2m/s-43.0°C1.5%0hPa0V00:00:0000:00:0000:00:00
DL9RDZ-12026-08-30 11:41:4264.08272-22.4484456°26km/h11008m4.1m/s-43.0°C1.5%0hPa0V00:00:0000:00:0000:00:00
DL9RDZ-12026-08-30 11:41:3164.08231-22.4498562°31km/h10964m4.3m/s-42.9°C1.6%0hPa0V00:00:0000:00:0000:00:00
DL9RDZ-12026-08-30 11:41:2164.08199-22.4513565°37km/h10925m4.2m/s-43.0°C1.7%0hPa0V00:00:0000:00:0000:00:00
DL9RDZ-12026-08-30 11:41:1064.08160-22.4532158°33km/h10881m4.8m/s-43.7°C1.9%0hPa0V00:00:0000:00:0000:00:00
DL9RDZ-12026-08-30 11:41:0064.08118-22.4546160°26km/h10839m4.6m/s-43.5°C2.0%0hPa0V00:00:0000:00:0000:00:00
DL9RDZ-12026-08-30 11:40:4964.08067-22.4560144°27km/h10795m5.1m/s-43.8°C2.1%0hPa0V00:00:0000:00:0000:00:00
DL9RDZ-12026-08-30 11:40:3964.08031-22.4572556°26km/h10752m2.7m/s-43.8°C2.0%0hPa0V00:00:0000:00:0000:00:00
DL9RDZ-12026-08-30 11:40:2864.07986-22.4587057°33km/h10710m3.6m/s-44.3°C1.9%0hPa0V00:00:0000:00:0000:00:00
DL9RDZ-12026-08-30 11:40:1964.07933-22.4601048°31km/h10672m3.9m/s-44.3°C2.0%0hPa0V00:00:0000:00:0000:00:00
DL9RDZ-12026-08-30 11:40:0964.07890-22.4612753°24km/h10631m3.2m/s-44.6°C2.0%0hPa0V00:00:0000:00:0000:00:00
DL9RDZ-12026-08-30 11:39:5764.07846-22.4623637°24km/h10586m3.7m/s-44.4°C2.1%0hPa0V00:00:0000:00:0000:00:00
DL9RDZ-12026-08-30 11:39:4464.07799-22.4635648°18km/h10536m4.1m/s-44.9°C2.3%0hPa0V00:00:0000:00:0000:00:00
DL9RDZ-12026-08-30 11:39:3464.07766-22.4642143°18km/h10496m4.2m/s-45.0°C2.4%0hPa0V00:00:0000:00:0000:00:00
DL9RDZ-12026-08-30 11:39:2464.07724-22.4649843°26km/h10456m2.4m/s-45.3°C2.7%0hPa0V00:00:0000:00:0000:00:00
DL9RDZ-12026-08-30 11:39:1364.07686-22.4661053°22km/h10410m3.7m/s-45.5°C2.9%0hPa0V00:00:0000:00:0000:00:00
DL9RDZ-12026-08-30 11:39:0264.07654-22.4668656°15km/h10365m3.2m/s-45.3°C3.1%0hPa0V00:00:0000:00:0000:00:00
DL9RDZ-12026-08-30 11:38:5164.07615-22.4677462°22km/h10322m4.2m/s-45.8°C3.4%0hPa0V00:00:0000:00:0000:00:00
DL9RDZ-12026-08-30 11:38:4064.07584-22.4687341°18km/h10278m4.4m/s-46.1°C3.7%0hPa0V00:00:0000:00:0000:00:00
DL9RDZ-12026-08-30 11:38:2964.07547-22.4697161°20km/h10233m5.2m/s-46.4°C4.0%0hPa0V00:00:0000:00:0000:00:00
DL9RDZ-12026-08-30 11:38:1864.07513-22.4708768°24km/h10188m3.3m/s-46.5°C4.2%0hPa0V00:00:0000:00:0000:00:00
DL9RDZ-12026-08-30 11:38:0764.07477-22.4723155°29km/h10144m3.8m/s-47.1°C4.6%0hPa0V00:00:0000:00:0000:00:00
DL9RDZ-12026-08-30 11:37:5764.07422-22.4737040°31km/h10101m3.1m/s-47.3°C5.4%0hPa0V00:00:0000:00:0000:00:00
DL9RDZ-12026-08-30 11:37:4664.07366-22.4751657°35km/h10057m4.6m/s-47.7°C6.6%0hPa0V00:00:0000:00:0000:00:00
DL9RDZ-12026-08-30 11:37:3664.07317-22.4767849°33km/h10016m5.2m/s-48.3°C7.8%0hPa0V00:00:0000:00:0000:00:00
DL9RDZ-12026-08-30 11:37:2564.07253-22.4783234°31km/h9970m3.7m/s-48.4°C8.4%0hPa0V00:00:0000:00:0000:00:00
DL9RDZ-12026-08-30 11:37:1464.07185-22.4794837°29km/h9929m4.5m/s-48.5°C8.9%0hPa0V00:00:0000:00:0000:00:00
DL9RDZ-12026-08-30 11:37:0464.07120-22.4805438°33km/h9889m4.4m/s-48.8°C10.6%0hPa0V00:00:0000:00:0000:00:00
DL9RDZ-12026-08-30 11:36:5364.07050-22.4817438°33km/h9843m4.1m/s-49.2°C12.8%0hPa0V00:00:0000:00:0000:00:00
DL9RDZ-12026-08-30 11:36:4264.06991-22.4831348°27km/h9797m4.7m/s-49.5°C15.5%0hPa0V00:00:0000:00:0000:00:00
DL9RDZ-12026-08-30 11:36:3164.06949-22.4844149°27km/h9754m4.1m/s-50.2°C18.0%0hPa0V00:00:0000:00:0000:00:00
DL9RDZ-12026-08-30 11:36:2164.06890-22.4855737°29km/h9713m4.5m/s-50.5°C20.0%0hPa0V00:00:0000:00:0000:00:00
DL9RDZ-12026-08-30 11:36:1064.06816-22.4868430°35km/h9667m4.1m/s-50.9°C22.6%0hPa0V00:00:0000:00:0000:00:00
DL9RDZ-12026-08-30 11:36:0064.06744-22.4877935°31km/h9624m4.2m/s-51.0°C23.5%0hPa0V00:00:0000:00:0000:00:00
DL9RDZ-12026-08-30 11:35:4964.06664-22.4889839°35km/h9577m4.8m/s-51.1°C24.8%0hPa0V00:00:0000:00:0000:00:00
DL9RDZ-12026-08-30 11:35:3864.06589-22.4902736°40km/h9535m4.8m/s-51.2°C25.3%0hPa0V00:00:0000:00:0000:00:00
DL9RDZ-12026-08-30 11:35:2964.06504-22.4914226°38km/h9494m4.2m/s-51.2°C26.1%0hPa0V00:00:0000:00:0000:00:00
DL9RDZ-12026-08-30 11:35:1864.06415-22.4924020°37km/h9446m3.4m/s-50.9°C26.0%0hPa0V00:00:0000:00:0000:00:00
DL9RDZ-12026-08-30 11:35:0664.06327-22.4935636°42km/h9401m4.4m/s-51.0°C27.2%0hPa0V00:00:0000:00:0000:00:00
DL9RDZ-12026-08-30 11:34:5564.06242-22.4949235°37km/h9356m4.2m/s-51.0°C26.8%0hPa0V00:00:0000:00:0000:00:00
DL9RDZ-12026-08-30 11:34:4564.06165-22.4959827°35km/h9312m4.1m/s-50.9°C27.2%0hPa0V00:00:0000:00:0000:00:00
DL9RDZ-12026-08-30 11:34:3464.06075-22.4969830°35km/h9266m5.0m/s-50.9°C28.6%0hPa0V00:00:0000:00:0000:00:00
DL9RDZ-12026-08-30 11:34:2564.05996-22.4979228°38km/h9224m3.7m/s-50.9°C31.1%0hPa0V00:00:0000:00:0000:00:00
DL9RDZ-12026-08-30 11:34:1464.05917-22.4988425°37km/h9182m3.8m/s-51.1°C33.7%0hPa0V00:00:0000:00:0000:00:00
DL9RDZ-12026-08-30 11:34:0464.05829-22.4997728°37km/h9138m4.0m/s-51.2°C34.9%0hPa0V00:00:0000:00:0000:00:00
DL9RDZ-12026-08-30 11:33:5364.05751-22.5008033°38km/h9096m4.0m/s-51.1°C35.9%0hPa0V00:00:0000:00:0000:00:00
DL9RDZ-12026-08-30 11:33:4364.05676-22.5020135°35km/h9052m4.5m/s-50.9°C37.1%0hPa0V00:00:0000:00:0000:00:00
DL9RDZ-12026-08-30 11:33:3364.05600-22.5032033°35km/h9012m3.6m/s-50.8°C38.0%0hPa0V00:00:0000:00:0000:00:00
DL9RDZ-12026-08-30 11:33:2364.05525-22.5043627°35km/h8964m3.8m/s-50.7°C39.3%0hPa0V00:00:0000:00:0000:00:00
DL9RDZ-12026-08-30 11:33:1164.05436-22.5054433°37km/h8918m4.7m/s-50.5°C40.0%0hPa0V00:00:0000:00:0000:00:00
DL9RDZ-12026-08-30 11:32:5964.05347-22.5067024°37km/h8869m4.1m/s-50.4°C41.7%0hPa0V00:00:0000:00:0000:00:00
DL9RDZ-12026-08-30 11:32:4964.05272-22.5077230°29km/h8822m4.5m/s-50.2°C42.1%0hPa0V00:00:0000:00:0000:00:00
DL9RDZ-12026-08-30 11:32:2364.05092-22.5099621°35km/h8716m5.0m/s-49.4°C46.4%0hPa0V00:00:0000:00:0000:00:00
DL9RDZ-12026-08-30 11:32:1364.05003-22.5109324°33km/h8669m4.3m/s-49.1°C47.7%0hPa0V00:00:0000:00:0000:00:00
DL9RDZ-12026-08-30 11:32:0264.04929-22.5118934°38km/h8628m3.7m/s-48.9°C49.0%0hPa0V00:00:0000:00:0000:00:00
DL9RDZ-12026-08-30 11:31:5264.04852-22.5129936°37km/h8585m4.6m/s-48.6°C48.4%0hPa0V00:00:0000:00:0000:00:00
DL9RDZ-12026-08-30 11:31:4164.04767-22.5141233°33km/h8544m4.1m/s-48.2°C47.4%0hPa0V00:00:0000:00:0000:00:00
DL9RDZ-12026-08-30 11:31:2064.04604-22.5165027°38km/h8450m5.5m/s-47.6°C46.1%0hPa0V00:00:0000:00:0000:00:00
DL9RDZ-12026-08-30 11:31:1064.04517-22.5176437°38km/h8394m4.7m/s-47.2°C44.9%0hPa0V00:00:0000:00:0000:00:00
DL9RDZ-12026-08-30 11:30:5864.04432-22.5189032°35km/h8340m4.9m/s-46.7°C44.3%0hPa0V00:00:0000:00:0000:00:00
DL9RDZ-12026-08-30 11:30:4764.04346-22.5201032°37km/h8284m5.4m/s-46.3°C43.2%0hPa0V00:00:0000:00:0000:00:00
DL9RDZ-12026-08-30 11:30:3764.04266-22.5211533°40km/h8234m5.3m/s-46.0°C43.5%0hPa0V00:00:0000:00:0000:00:00
DL9RDZ-12026-08-30 11:30:2664.04178-22.5223535°35km/h8176m4.9m/s-45.6°C40.8%0hPa0V00:00:0000:00:0000:00:00
DL9RDZ-12026-08-30 11:30:1764.04105-22.5233536°37km/h8124m5.8m/s-45.2°C32.5%0hPa0V00:00:0000:00:0000:00:00
DL9RDZ-12026-08-30 11:30:0564.04025-22.5245632°35km/h8074m4.4m/s-44.9°C30.8%0hPa0V00:00:0000:00:0000:00:00
DL9RDZ-12026-08-30 11:29:4464.03876-22.5272337°35km/h7984m4.5m/s-44.2°C28.3%0hPa0V00:00:0000:00:0000:00:00
DL9RDZ-12026-08-30 11:29:3364.03796-22.5285336°33km/h7935m4.9m/s-44.0°C27.8%0hPa0V00:00:0000:00:0000:00:00
DL9RDZ-12026-08-30 11:29:2264.03729-22.5297636°35km/h7891m3.5m/s-43.8°C37.0%0hPa0V00:00:0000:00:0000:00:00
DL9RDZ-12026-08-30 11:29:1164.03649-22.5308139°35km/h7847m5.7m/s-43.6°C42.6%0hPa0V00:00:0000:00:0000:00:00
DL9RDZ-12026-08-30 11:29:0064.03580-22.5320028°31km/h7805m5.3m/s-43.3°C38.7%0hPa0V00:00:0000:00:0000:00:00
DL9RDZ-12026-08-30 11:28:5064.03516-22.5330131°37km/h7765m4.4m/s-42.8°C35.4%0hPa0V00:00:0000:00:0000:00:00
DL9RDZ-12026-08-30 11:28:3964.03443-22.5340827°31km/h7721m3.3m/s-42.7°C40.7%0hPa0V00:00:0000:00:0000:00:00
DL9RDZ-12026-08-30 11:28:2864.03373-22.5354043°29km/h7676m3.4m/s-42.5°C45.1%0hPa0V00:00:0000:00:0000:00:00
DL9RDZ-12026-08-30 11:28:1764.03310-22.5364838°31km/h7632m4.3m/s-42.2°C45.4%0hPa0V00:00:0000:00:0000:00:00
DL9RDZ-12026-08-30 11:28:0764.03251-22.5375640°27km/h7588m4.8m/s-41.8°C41.6%0hPa0V00:00:0000:00:0000:00:00
DL9RDZ-12026-08-30 11:27:5664.03186-22.5386538°27km/h7540m5.0m/s-41.5°C36.7%0hPa0V00:00:0000:00:0000:00:00
DL9RDZ-12026-08-30 11:27:4664.03124-22.5398246°27km/h7494m3.5m/s-41.1°C43.3%0hPa0V00:00:0000:00:0000:00:00
DL9RDZ-12026-08-30 11:27:3464.03062-22.5410443°31km/h7452m3.8m/s-40.7°C38.0%0hPa0V00:00:0000:00:0000:00:00
DL9RDZ-12026-08-30 11:27:2364.03009-22.5423642°31km/h7409m1.8m/s-40.3°C29.4%0hPa0V00:00:0000:00:0000:00:00
DL9RDZ-12026-08-30 11:27:1364.02953-22.5438153°31km/h7367m3.8m/s-40.1°C26.3%0hPa0V00:00:0000:00:0000:00:00
DL9RDZ-12026-08-30 11:27:0164.02901-22.5452353°33km/h7323m3.6m/s-39.9°C26.5%0hPa0V00:00:0000:00:0000:00:00
DL9RDZ-12026-08-30 11:26:5164.02851-22.5464949°31km/h7283m2.8m/s-39.6°C28.3%0hPa0V00:00:0000:00:0000:00:00
DL9RDZ-12026-08-30 11:26:4164.02792-22.5476840°31km/h7241m4.0m/s-39.4°C30.4%0hPa0V00:00:0000:00:0000:00:00
DL9RDZ-12026-08-30 11:26:3064.02730-22.5491251°33km/h7190m6.8m/s-39.0°C32.8%0hPa0V00:00:0000:00:0000:00:00
DL9RDZ-12026-08-30 11:26:2064.02664-22.5502343°31km/h7139m4.0m/s-39.1°C50.6%0hPa0V00:00:0000:00:0000:00:00
DL9RDZ-12026-08-30 11:26:1064.02608-22.5516052°31km/h7094m4.4m/s-39.0°C49.3%0hPa0V00:00:0000:00:0000:00:00
DL9RDZ-12026-08-30 11:25:5964.02556-22.5525837°27km/h7046m4.2m/s-38.6°C47.8%0hPa0V00:00:0000:00:0000:00:00
DL9RDZ-12026-08-30 11:25:4964.02512-22.5533946°26km/h7006m2.9m/s-38.2°C48.8%0hPa0V00:00:0000:00:0000:00:00
DL9RDZ-12026-08-30 11:25:3864.02462-22.5542535°20km/h6962m3.9m/s-38.0°C49.1%0hPa0V00:00:0000:00:0000:00:00
DL9RDZ-12026-08-30 11:25:2864.02419-22.5550631°18km/h6918m3.1m/s-37.6°C49.4%0hPa0V00:00:0000:00:0000:00:00
DL9RDZ-12026-08-30 11:25:1764.02381-22.5556851°20km/h6878m4.2m/s-37.3°C49.1%0hPa0V00:00:0000:00:0000:00:00
DL9RDZ-12026-08-30 11:25:0664.02334-22.5562830°16km/h6830m4.6m/s-36.9°C49.1%0hPa0V00:00:0000:00:0000:00:00
DL9RDZ-12026-08-30 11:24:5664.02301-22.5568247°16km/h6779m6.1m/s-36.5°C47.1%0hPa0V00:00:0000:00:0000:00:00
DL9RDZ-12026-08-30 11:24:4664.02262-22.5572841°18km/h6732m3.5m/s-36.1°C47.9%0hPa0V00:00:0000:00:0000:00:00
DL9RDZ-12026-08-30 11:24:3564.02229-22.5579338°20km/h6691m4.4m/s-35.8°C47.1%0hPa0V00:00:0000:00:0000:00:00
DL9RDZ-12026-08-30 11:24:2564.02196-22.5585646°15km/h6648m3.7m/s-35.5°C48.0%0hPa0V00:00:0000:00:0000:00:00
DL9RDZ-12026-08-30 11:24:1564.02161-22.5594754°16km/h6593m3.9m/s-35.1°C46.9%0hPa0V00:00:0000:00:0000:00:00
DL9RDZ-12026-08-30 11:24:0364.02121-22.5602344°20km/h6539m5.2m/s-34.8°C47.7%0hPa0V00:00:0000:00:0000:00:00
DL9RDZ-12026-08-30 11:23:5264.02077-22.5612035°22km/h6492m5.3m/s-34.4°C47.3%0hPa0V00:00:0000:00:0000:00:00
DL9RDZ-12026-08-30 11:23:4264.02041-22.5619742°22km/h6452m3.5m/s-34.1°C47.7%0hPa0V00:00:0000:00:0000:00:00
DL9RDZ-12026-08-30 11:23:3164.02002-22.5629263°18km/h6398m4.8m/s-33.7°C44.1%0hPa0V00:00:0000:00:0000:00:00
DL9RDZ-12026-08-30 11:23:2164.01974-22.5636553°24km/h6354m4.4m/s-33.6°C49.7%0hPa0V00:00:0000:00:0000:00:00
DL9RDZ-12026-08-30 11:23:1064.01933-22.5644636°24km/h6299m4.4m/s-33.2°C50.5%0hPa0V00:00:0000:00:0000:00:00
DL9RDZ-12026-08-30 11:23:0064.01900-22.5653046°16km/h6243m4.9m/s-32.7°C47.0%0hPa0V00:00:0000:00:0000:00:00
DL9RDZ-12026-08-30 11:22:5164.01861-22.5663355°27km/h6196m3.8m/s-32.4°C46.0%0hPa0V00:00:0000:00:0000:00:00
DL9RDZ-12026-08-30 11:22:4064.01826-22.5671049°18km/h6154m4.2m/s-32.1°C43.0%0hPa0V00:00:0000:00:0000:00:00
DL9RDZ-12026-08-30 11:22:2964.01791-22.5678264°16km/h6105m4.5m/s-31.8°C36.5%0hPa0V00:00:0000:00:0000:00:00
DL9RDZ-12026-08-30 11:22:1864.01763-22.5688064°15km/h6055m2.8m/s-31.5°C38.7%0hPa0V00:00:0000:00:0000:00:00
DL9RDZ-12026-08-30 11:22:0764.01739-22.5696762°18km/h6009m2.7m/s-31.2°C40.9%0hPa0V00:00:0000:00:0000:00:00
DL9RDZ-12026-08-30 11:21:5664.01696-22.5708455°27km/h5954m5.6m/s-30.8°C39.2%0hPa0V00:00:0000:00:0000:00:00
DL9RDZ-12026-08-30 11:21:4564.01648-22.5719752°26km/h5906m4.3m/s-30.5°C47.9%0hPa0V00:00:0000:00:0000:00:00
DL9RDZ-12026-08-30 11:21:3564.01605-22.5731450°20km/h5858m5.1m/s-30.3°C48.8%0hPa0V00:00:0000:00:0000:00:00
DL9RDZ-12026-08-30 11:21:2464.01567-22.5740049°15km/h5807m2.8m/s-29.8°C43.4%0hPa0V00:00:0000:00:0000:00:00
DL9RDZ-12026-08-30 11:21:1364.01527-22.5747251°15km/h5764m3.6m/s-29.4°C41.2%0hPa0V00:00:0000:00:0000:00:00
DL9RDZ-12026-08-30 11:21:0364.01495-22.5756558°20km/h5719m5.2m/s-29.0°C38.6%0hPa0V00:00:0000:00:0000:00:00
DL9RDZ-12026-08-30 11:20:5364.01456-22.5764740°18km/h5673m4.6m/s-28.6°C36.6%0hPa0V00:00:0000:00:0000:00:00
DL9RDZ-12026-08-30 11:20:4364.01412-22.5769928°18km/h5634m4.1m/s-28.4°C34.8%0hPa0V00:00:0000:00:0000:00:00
DL9RDZ-12026-08-30 11:20:3364.01372-22.5776641°20km/h5595m3.8m/s-28.4°C44.0%0hPa0V00:00:0000:00:0000:00:00
DL9RDZ-12026-08-30 11:20:2264.01318-22.5782533°26km/h5549m3.2m/s-28.1°C49.6%0hPa0V00:00:0000:00:0000:00:00
DL9RDZ-12026-08-30 11:20:1164.01247-22.5791725°29km/h5498m3.9m/s-27.7°C54.8%0hPa0V00:00:0000:00:0000:00:00
DL9RDZ-12026-08-30 11:20:0064.01187-22.5797025°22km/h5434m5.3m/s-27.3°C63.8%0hPa0V00:00:0000:00:0000:00:00
DL9RDZ-12026-08-30 11:19:4964.01114-22.5801618°42km/h5380m5.7m/s-27.0°C71.9%0hPa0V00:00:0000:00:0000:00:00
DL9RDZ-12026-08-30 11:19:3964.01027-22.5806947km/h5328m6.1m/s-27.3°C86.0%0hPa0V00:00:0000:00:0000:00:00
DL9RDZ-12026-08-30 11:19:2864.00905-22.5808447km/h5276m3.8m/s-27.6°C94.9%0hPa0V00:00:0000:00:0000:00:00
DL9RDZ-12026-08-30 11:19:0664.00712-22.5813623°37km/h5165m6.1m/s-26.8°C92.8%0hPa0V00:00:0000:00:0000:00:00
DL9RDZ-12026-08-30 11:18:4464.00543-22.58224357°33km/h5042m5.7m/s-25.6°C86.4%0hPa0V00:00:0000:00:0000:00:00
DL9RDZ-12026-08-30 11:18:3364.00457-22.5824919°37km/h4985m3.7m/s-25.0°C83.4%0hPa0V00:00:0000:00:0000:00:00
DL9RDZ-12026-08-30 11:17:3364.00083-22.5862026°31km/h4697m6.4m/s-22.3°C70.7%0hPa0V00:00:0000:00:0000:00:00
DL9RDZ-12026-08-30 11:16:5463.99908-22.5880331°11km/h4524m3.5m/s-20.8°C65.4%0hPa0V00:00:0000:00:0000:00:00
DL9RDZ-12026-08-30 11:16:0163.99757-22.5911865°15km/h4290m4.6m/s-18.9°C62.6%0hPa0V00:00:0000:00:0000:00:00
DL9RDZ-12026-08-30 11:15:5063.99745-22.5917760°16km/h4243m6.7m/s-18.5°C61.8%0hPa0V00:00:0000:00:0000:00:00
DL9RDZ-12026-08-30 11:15:4063.99731-22.5924652°15km/h4191m4.9m/s-18.0°C62.9%0hPa0V00:00:0000:00:0000:00:00
DL9RDZ-12026-08-30 11:15:2863.99709-22.5930242°20km/h4141m4.8m/s-18.2°C75.0%0hPa0V00:00:0000:00:0000:00:00
DL9RDZ-12026-08-30 11:15:1863.99665-22.5938749°18km/h4097m6.1m/s-18.5°C90.4%0hPa0V00:00:0000:00:0000:00:00
DL9RDZ-12026-08-30 11:15:0763.99636-22.5953473°31km/h4043m2.8m/s-18.1°C90.7%0hPa0V00:00:0000:00:0000:00:00
DL9RDZ-12026-08-30 11:14:5663.99608-22.5970885°27km/h4007m3.0m/s-17.8°C87.8%0hPa0V00:00:0000:00:0000:00:00
DL9RDZ-12026-08-30 11:14:4563.99578-22.5988861°38km/h3960m4.3m/s-17.3°C87.1%0hPa0V00:00:0000:00:0000:00:00
DL9RDZ-12026-08-30 11:14:3563.99545-22.6007383°22km/h3901m4.8m/s-16.7°C83.0%0hPa0V00:00:0000:00:0000:00:00
DL9RDZ-12026-08-30 11:14:2463.99514-22.6021376°27km/h3845m5.3m/s-16.3°C82.0%0hPa0V00:00:0000:00:0000:00:00
DL9RDZ-12026-08-30 11:14:1363.99488-22.6040075°33km/h3790m2.8m/s-15.9°C87.3%0hPa0V00:00:0000:00:0000:00:00
DL9RDZ-12026-08-30 11:14:0263.99461-22.6057640°24km/h3737m5.4m/s-15.5°C86.7%0hPa0V00:00:0000:00:0000:00:00
DL9RDZ-12026-08-30 11:13:5263.99443-22.6068470°26km/h3684m6.0m/s-15.1°C87.1%0hPa0V00:00:0000:00:0000:00:00
DL9RDZ-12026-08-30 11:13:4263.99414-22.6083063°29km/h3638m4.7m/s-14.8°C91.2%0hPa0V00:00:0000:00:0000:00:00
DL9RDZ-12026-08-30 11:13:3163.99369-22.6094273°27km/h3585m6.6m/s-14.9°C95.7%0hPa0V00:00:0000:00:0000:00:00
DL9RDZ-12026-08-30 11:13:2063.99362-22.6106591°15km/h3527m3.9m/s-14.6°C92.5%0hPa0V00:00:0000:00:0000:00:00
DL9RDZ-12026-08-30 11:13:0963.99355-22.61125106°7km/h3470m6.0m/s-14.2°C89.4%0hPa0V00:00:0000:00:0000:00:00
DL9RDZ-12026-08-30 11:12:5963.99354-22.6119295°7km/h3427m4.4m/s-13.8°C91.4%0hPa0V00:00:0000:00:0000:00:00
DL9RDZ-12026-08-30 11:12:4863.99357-22.6126082°9km/h3381m4.3m/s-13.4°C91.3%0hPa0V00:00:0000:00:0000:00:00
DL9RDZ-12026-08-30 11:12:3763.99345-22.61294349°4km/h3337m2.7m/s-13.0°C89.7%0hPa0V00:00:0000:00:0000:00:00
DL9RDZ-12026-08-30 11:12:2763.99336-22.6134789°16km/h3281m5.5m/s-12.5°C86.9%0hPa0V00:00:0000:00:0000:00:00
DL9RDZ-12026-08-30 11:12:1563.99342-22.61404354°4km/h3226m5.8m/s-12.0°C84.5%0hPa0V00:00:0000:00:0000:00:00
DL9RDZ-12026-08-30 11:12:0563.99345-22.61431129°7km/h3171m4.7m/s-11.5°C80.9%0hPa0V00:00:0000:00:0000:00:00
DL9RDZ-12026-08-30 11:11:5463.99330-22.6146216°4km/h3124m4.0m/s-11.1°C79.4%0hPa0V00:00:0000:00:0000:00:00
DL9RDZ-12026-08-30 11:10:2263.99247-22.6181113km/h2719m4.4m/s-8.5°C91.1%0hPa0V00:00:0000:00:0000:00:00
DL9RDZ-12026-08-30 11:10:0663.99206-22.61830358°9km/h2658m5.4m/s-8.2°C93.6%0hPa0V00:00:0000:00:0000:00:00
DL9RDZ-12026-08-30 11:09:5463.99172-22.61817313°9km/h2613m4.3m/s-7.8°C91.8%0hPa0V00:00:0000:00:0000:00:00
DL9RDZ-12026-08-30 11:09:4363.99140-22.6185740°9km/h2563m4.5m/s-7.7°C97.8%0hPa0V00:00:0000:00:0000:00:00
DL9RDZ-12026-08-30 11:09:3263.99117-22.6189418°7km/h2512m5.3m/s-7.4°C95.3%0hPa0V00:00:0000:00:0000:00:00
DL9RDZ-12026-08-30 11:09:2163.99086-22.6192136°13km/h2463m3.5m/s-7.0°C95.3%0hPa0V00:00:0000:00:0000:00:00
DL9RDZ-12026-08-30 11:09:1163.99051-22.6193411km/h2416m5.0m/s-6.6°C92.8%0hPa0V00:00:0000:00:0000:00:00
DL9RDZ-12026-08-30 11:09:0063.99018-22.61956345°9km/h2365m5.2m/s-6.2°C89.6%0hPa0V00:00:0000:00:0000:00:00
DL9RDZ-12026-08-30 11:08:5063.98996-22.61928319°11km/h2324m4.3m/s-6.3°C98.3%0hPa0V00:00:0000:00:0000:00:00
DL9RDZ-12026-08-30 11:08:3963.98975-22.6189330°11km/h2271m5.7m/s-6.0°C99.1%0hPa0V00:00:0000:00:0000:00:00
DL9RDZ-12026-08-30 11:08:2863.98934-22.6191416km/h2206m4.4m/s-5.6°C99.4%0hPa0V00:00:0000:00:0000:00:00
DL9RDZ-12026-08-30 11:08:1763.98892-22.61898346°24km/h2160m3.6m/s-5.3°C99.5%0hPa0V00:00:0000:00:0000:00:00
DL9RDZ-12026-08-30 11:08:0763.98850-22.61888320°11km/h2113m4.7m/s-5.0°C98.4%0hPa0V00:00:0000:00:0000:00:00
DL9RDZ-12026-08-30 11:07:5763.98817-22.61865358°18km/h2059m4.0m/s-4.6°C99.4%0hPa0V00:00:0000:00:0000:00:00
DL9RDZ-12026-08-30 11:07:4663.98773-22.61860350°18km/h2006m3.9m/s-4.3°C0%0hPa0V00:00:0000:00:0000:00:00
DL9RDZ-12026-08-30 11:07:3563.98749-22.61851344°18km/h1960m4.5m/s-4.0°C99.0%0hPa0V00:00:0000:00:0000:00:00
DL9RDZ-12026-08-30 11:07:2463.98708-22.6186919°26km/h1907m5.7m/s-3.5°C97.2%0hPa0V00:00:0000:00:0000:00:00
DL9RDZ-12026-08-30 11:07:0863.98625-22.6187320km/h1819m6.6m/s-3.2°C94.8%0hPa0V00:00:0000:00:0000:00:00
DL9RDZ-12026-08-30 11:06:2963.98484-22.61925347°16km/h1633m4.2m/s-2.1°C97.8%0hPa0V00:00:0000:00:0000:00:00
DL9RDZ-12026-08-30 11:06:1863.98448-22.61930337°24km/h1586m4.9m/s-1.8°C97.1%0hPa0V00:00:0000:00:0000:00:00
DL9RDZ-12026-08-30 11:06:0763.98406-22.6193837°16km/h1533m4.3m/s-1.4°C97.6%0hPa0V00:00:0000:00:0000:00:00
DL9RDZ-12026-08-30 11:05:5663.98365-22.6193814°9km/h1476m4.7m/s-1.1°C98.5%0hPa0V00:00:0000:00:0000:00:00
DL9RDZ-12026-08-30 11:05:4663.98315-22.61927346°26km/h1430m5.3m/s-0.8°C99.1%0hPa0V00:00:0000:00:0000:00:00
DL9RDZ-12026-08-30 11:05:3663.98262-22.61901344°29km/h1380m3.2m/s-0.5°C0%0hPa0V00:00:0000:00:0000:00:00
DL9RDZ-12026-08-30 11:05:2363.98201-22.6190526km/h1312m3.6m/s-0.0°C0%0hPa0V00:00:0000:00:0000:00:00
DL9RDZ-12026-08-30 11:05:1363.98158-22.6189418km/h1268m6.5m/s0°C0%0hPa0V00:00:0000:00:0000:00:00
DL9RDZ-12026-08-30 11:05:0263.98107-22.61882341°13km/h1211m5.0m/s0°C0%0hPa0V00:00:0000:00:0000:00:00
DL9RDZ-12026-08-30 11:04:5163.98048-22.6188915°22km/h1157m6.7m/s0°C0%0hPa0V00:00:0000:00:0000:00:00
DL9RDZ-12026-08-30 11:03:2663.97578-22.6192939°16km/h762m3.9m/s0°C0%0hPa0V00:00:0000:00:0000:00:00


GPX KML Map

© wettersonde.net (DO2JMG) - 2026  -  -